Temp
63 66 67 65 64 64 65 65 66 67 68 68 68 68 69 68 67 67 67 65 66 63 64 64 63 63 62 61 62 61 60 60 59 60 61 62 63 63 63 64 65 63 61
62 64 64 63 64 64 65 66 67 67 68 68 69 69 68 68 67 67 66 66 65 64 63 63 63 62 62 62 62 62 61 61 61 60 60 60 62 63 63 62 63 63 63
61 60 60 62 64 64 65 66 67 68 68 68 69 68 68 68 67 68 67 66 65 64 64 63 63 63 62 62 62 62 61 61 61 61 59 60 61 61 60 60 60 61 62
63 61 62 63 64 65 66 66 67 68 68 68 69 69 69 68 68 67 66 65 64 64 63 63 63 63 63 62 62 62 62 60 59 59 60 59 59 60 60 59 58 59 59
63 63 64 65 66 66 66 67 68 68 68 69 68 69 68 68 67 66 66 65 64 63 63 63 63 62 60 61 62 62 61 60 59 60 59 58 58 58 58 57 56 58 58
63 64 65 66 68 67 68 67 67 68 68 68 68 68 66 66 53 55 62 63 63 62 62 62 62 60 59 53 55 56 59 59 58 60 59 58 58 57 58 57 57 58 56
63 65 66 68 68 68 68 67 67 66 67 66 67 66 64 64 50 51 54 63 62 62 62 61 60 62 60 61 53 53 54 54 57 60 60 59 59 59 58 57 59 58 57
63 66 66 67 67 67 67 66 66 66 65 65 64 64 63 59 47 47 50 63 62 62 62 61 61 61 61 61 60 60 59 59 60 60 63 62 62 62 63 60 57 56 57
63 64 66 66 65 65 65 64 64 63 62 62 62 61 60 55 45 46 56 61 61 60 60 61 61 61 51 47 59 59 58 57 51 52 52 50 48 50 57 61 58 58 55
62 64 67 66 64 64 63 62 63 63 61 60 58 58 53 54 45 46 56 61 59 59 59 58 50 57 46 45 60 58 57 55 56 56 55 51 52 53 51 63 62 59 57
63 64 67 65 64 63 62 62 62 60 59 58 57 57 56 54 51 46 48 61 60 59 59 58 57 45 43 43 50 60 56 56 53 56 57 56 57 57 60 60 63 64 61
62 66 65 63 63 63 62 61 60 59 57 56 56 56 57 56 48 45 46 52 55 61 60 58 55 43 43 44 51 44 45 52 59 57 56 55 56 57 59 61 61 63 64
60 63 62 63 62 63 62 60 59 59 58 58 57 56 55 55 53 44 44 44 48 59 61 53 44 41 42 44 43 44 48 60 57 56 55 56 57 58 57 57 59 62 62
59 60 61 61 61 63 63 62 60 60 59 59 58 57 56 56 56 54 53 52 48 51 48 49 47 47 48 48 50 54 60 60 58 57 56 56 57 57 57 58 58 60 59
59 60 60 60 60 56 51 57 61 60 59 60 59 59 57 56 57 52 54 58 57 52 52 54 54 54 54 55 57 58 59 59 58 57 56 56 56 56 55 57 58 59 59
59 60 60 60 58 56 55 52 41 43 44 45 48 55 55 49 44 44 43 44 43 44 56 55 55 55 55 56 56 56 58 56 58 58 57 57 56 56 55 55 56 58 60
60 60 59 59 59 58 59 57 53 47 41 40 42 43 45 44 42 43 41 41 42 46 57 56 55 56 56 57 57 58 56 57 59 58 58 58 58 56 54 55 56 56 55
61 51 60 60 60 60 60 59 58 57 57 54 42 43 40 40 40 40 40 45 52 53 57 56 56 57 57 57 57 56 57 57 57 58 58 58 57 57 56 55 56 55 56
61 62 61 61 62 59 59 59 59 60 57 53 49 44 40 39 39 40 43 57 56 56 56 57 58 58 58 59 58 59 59 58 58 58 58 59 58 58 57 58 57 47 50
61 49 55 59 58 57 57 57 57 56 55 55 55 50 47 51 53 54 56 56 55 57 56 57 58 58 59 60 61 60 58 57 58 58 58 59 59 59 58 58 59 57 57
60 58 48 60 59 59 58 57 57 57 56 56 53 50 43 57 55 56 56 57 58 58 58 58 58 58 60 60 60 59 59 59 59 59 59 60 60 59 59 57 60 58 57
61 62 62 60 60 58 57 59 58 58 56 54 52 47 39 57 58 58 59 58 58 59 59 60 59 59 59 59 60 59 59 59 59 59 60 59 59 59 60 60 58 57 58
63 62 61 60 59 51 57 58 58 57 56 55 54 55 56 58 59 57 54 51 51 51 53 55 55 54 55 56 59 62 62 61 61 61 60 60 60 60 60 60 60 57 56
64 63 61 59 59 58 57 58 57 50 56 56 57 57 57 55 53 50 47 46 46 46 47 47 48 49 50 51 53 54 56 58 59 62 60 59 60 57 61 59 60 60 61
62 61 61 59 59 58 57 56 57 57 57 57 55 53 51 49 47 45 45 44 43 44 43 43 43 44 43 43 44 44 36 35 49 44 57 58 58 56 55 55 54 53 52
61 61 60 60 59 59 57 57 56 56 54 51 50 48 47 45 44 43 43 44 43 43 42 40 42 42 42 41 39 36 36 37 44 40 54 53 52 51 50 49 49 49 48
MSLP
996.12 995.76 995.73 995.90 996.32 996.80 997.26 997.91 998.39 999.21 999.94 1000.65 1001.38 1002.05 1002.81 1003.31 1003.97 1004.60 1004.98 1005.47 1005.95 1006.66 1007.44 1007.93 1008.39 1008.72 1009.12 1009.51 1009.87 1010.23 1010.45 1010.72 1011.12 1011.52 1011.58 1011.62 1011.61 1011.64 1011.61 1011.60 1011.62 1011.75 1012.19
995.46 995.08 995.05 995.44 995.85 996.37 996.98 997.12 997.82 998.53 999.42 1000.02 1000.70 1001.62 1002.31 1003.02 1003.57 1004.10 1004.63 1005.19 1005.83 1006.53 1007.11 1007.77 1008.16 1008.57 1008.94 1009.30 1009.67 1009.94 1010.20 1010.48 1010.83 1011.06 1011.55 1011.72 1011.68 1011.83 1011.88 1011.88 1011.92 1012.09 1012.40
994.74 994.43 994.55 994.92 995.53 996.00 996.37 996.62 997.42 998.40 998.81 999.31 1000.23 1001.03 1001.88 1002.61 1003.22 1003.70 1004.13 1004.92 1005.60 1006.20 1006.85 1007.37 1007.85 1008.27 1008.68 1009.07 1009.40 1009.70 1009.96 1010.24 1010.59 1010.84 1011.37 1011.66 1011.69 1011.84 1012.13 1012.12 1012.35 1012.53 1012.68
993.94 993.70 993.46 993.87 994.40 995.12 995.88 996.65 997.10 997.66 998.21 998.86 999.69 1000.48 1001.47 1002.27 1002.85 1003.42 1004.05 1004.82 1005.49 1006.13 1006.64 1007.14 1007.57 1007.90 1008.22 1008.68 1009.05 1009.40 1009.68 1010.02 1010.42 1010.71 1011.13 1011.55 1011.64 1011.90 1012.14 1012.33 1012.77 1012.93 1013.05
993.51 993.07 992.96 993.08 993.52 994.71 995.58 996.13 996.79 997.28 998.08 998.58 999.49 1000.41 1001.28 1001.96 1002.60 1003.23 1004.00 1004.74 1005.33 1006.01 1006.60 1007.00 1007.31 1007.66 1008.01 1008.38 1008.73 1009.08 1009.45 1009.81 1010.21 1010.55 1010.99 1011.41 1011.68 1011.74 1012.04 1012.51 1012.95 1013.17 1013.36
993.33 992.85 992.70 992.64 993.04 994.04 995.01 995.94 996.68 997.56 997.92 998.74 999.50 1000.29 1001.19 1001.82 1002.49 1003.05 1003.91 1004.63 1005.23 1005.85 1006.39 1006.88 1007.27 1007.55 1007.92 1008.20 1008.49 1008.80 1009.03 1009.39 1009.86 1010.25 1010.61 1011.02 1011.38 1011.60 1012.00 1012.40 1012.93 1013.23 1013.72
993.71 992.38 992.53 992.98 993.15 993.96 994.94 995.86 996.79 997.39 997.97 998.94 999.55 1000.28 1001.13 1001.87 1002.55 1003.32 1003.91 1004.53 1005.11 1005.65 1006.11 1006.63 1007.21 1007.59 1007.93 1008.24 1008.61 1008.76 1008.94 1009.10 1009.19 1009.54 1010.04 1010.57 1010.99 1011.31 1011.79 1012.41 1012.77 1013.21 1013.73
993.92 992.77 992.47 992.89 993.50 994.12 994.97 995.81 996.54 997.25 997.93 998.79 999.64 1000.40 1001.38 1002.26 1002.86 1003.46 1004.02 1004.54 1005.14 1005.56 1006.03 1006.52 1006.97 1007.42 1007.74 1008.08 1008.56 1008.73 1008.99 1009.31 1009.50 1009.46 1009.70 1010.33 1010.67 1011.11 1011.46 1011.80 1012.59 1013.45 1014.04
994.18 993.13 992.65 993.14 993.67 994.27 994.88 995.64 996.43 997.30 998.14 999.12 999.87 1000.77 1001.60 1002.71 1003.33 1003.77 1004.13 1004.62 1005.11 1005.71 1006.18 1006.60 1006.97 1007.26 1007.57 1007.99 1008.41 1008.58 1008.94 1009.42 1009.63 1009.50 1009.65 1010.04 1010.60 1010.94 1011.18 1011.94 1012.64 1013.10 1013.86
993.90 993.21 992.95 993.34 993.35 993.90 994.76 995.61 996.40 997.26 998.38 999.55 1000.52 1001.24 1001.93 1002.92 1003.60 1004.02 1003.93 1004.53 1005.35 1005.92 1006.43 1006.84 1007.10 1007.21 1007.59 1008.00 1008.13 1008.43 1008.98 1009.45 1009.68 1009.96 1010.44 1010.87 1010.82 1011.14 1011.29 1011.40 1012.03 1012.61 1013.31
993.43 992.95 992.77 993.28 993.47 993.94 994.99 995.70 996.43 997.73 998.94 1000.09 1000.94 1001.78 1002.54 1003.14 1003.78 1004.02 1004.13 1004.59 1005.20 1005.82 1006.31 1006.77 1007.20 1007.34 1007.66 1007.94 1008.16 1008.47 1008.84 1009.36 1009.66 1009.91 1010.34 1010.81 1011.15 1011.52 1011.65 1011.69 1011.82 1011.91 1012.64
992.94 992.34 992.63 993.39 993.83 994.51 994.70 996.01 997.09 998.14 999.44 1000.50 1001.41 1002.29 1002.94 1003.38 1003.90 1004.25 1004.44 1004.71 1005.19 1005.60 1006.10 1006.64 1007.11 1007.50 1007.91 1008.15 1008.41 1008.65 1008.93 1009.41 1009.73 1010.04 1010.28 1010.79 1011.19 1011.57 1011.87 1012.02 1012.12 1012.23 1012.39
993.58 992.74 992.94 993.49 993.81 994.57 995.40 996.69 997.77 998.62 999.66 1000.75 1001.50 1002.30 1003.10 1003.71 1004.20 1004.53 1004.74 1004.99 1005.28 1005.59 1006.00 1006.57 1007.11 1007.67 1008.07 1008.36 1008.57 1008.83 1009.09 1009.39 1009.74 1010.13 1010.51 1010.89 1011.21 1011.60 1011.98 1012.32 1012.49 1012.67 1012.95
993.74 993.14 993.23 993.50 994.23 995.34 996.35 997.20 998.08 999.01 999.89 1000.71 1001.50 1002.29 1003.10 1003.76 1004.21 1004.57 1004.97 1005.31 1005.56 1006.03 1006.50 1007.02 1007.41 1007.80 1007.98 1008.46 1009.01 1009.09 1009.14 1009.37 1009.70 1010.14 1010.62 1011.03 1011.45 1011.79 1012.12 1012.37 1012.70 1013.01 1013.30
993.53 993.59 993.78 994.71 995.18 996.39 997.70 998.30 998.81 999.43 999.49 1000.38 1001.15 1001.93 1002.73 1003.49 1004.01 1004.24 1004.62 1005.12 1005.54 1005.98 1006.54 1007.13 1007.52 1007.84 1008.37 1008.64 1008.81 1009.00 1009.28 1009.53 1009.77 1010.20 1010.61 1011.03 1011.46 1011.78 1012.19 1012.48 1012.72 1012.99 1013.21
992.71 993.43 994.70 995.10 995.99 996.96 997.76 999.22 1000.11 1000.09 1000.09 1000.46 1001.07 1001.61 1002.68 1003.20 1003.86 1004.37 1004.82 1005.14 1005.59 1006.03 1006.46 1006.92 1007.30 1007.72 1008.09 1008.36 1008.70 1009.05 1009.37 1009.54 1009.81 1010.10 1010.54 1010.97 1011.40 1011.78 1012.13 1012.51 1012.69 1012.95 1013.12
993.46 994.02 994.73 995.36 996.25 996.95 997.67 998.74 1000.12 1001.19 1001.20 1001.59 1001.79 1002.09 1002.56 1003.51 1004.13 1004.75 1005.12 1005.51 1005.90 1006.13 1006.41 1006.81 1007.14 1007.59 1007.95 1008.32 1008.68 1008.98 1009.31 1009.60 1009.86 1010.11 1010.45 1010.90 1011.28 1011.64 1012.05 1012.39 1012.65 1012.87 1013.11
993.23 993.64 994.33 995.30 996.01 996.71 997.55 998.51 999.45 1000.37 1001.41 1002.34 1002.92 1003.09 1003.50 1004.05 1004.68 1005.02 1005.48 1005.90 1006.44 1006.34 1006.43 1006.72 1007.06 1007.47 1007.82 1008.24 1008.65 1008.91 1009.26 1009.64 1009.87 1010.16 1010.49 1010.78 1011.09 1011.43 1011.87 1012.19 1012.40 1012.69 1012.96
992.80 993.55 994.41 995.24 995.96 996.83 997.71 998.58 999.31 1000.22 1001.26 1002.29 1003.40 1003.99 1004.59 1004.83 1005.22 1005.48 1005.62 1005.76 1006.07 1006.30 1006.42 1006.72 1007.06 1007.41 1007.77 1008.10 1008.44 1008.82 1009.08 1009.49 1009.62 1009.97 1010.33 1010.65 1010.96 1011.28 1011.65 1011.95 1012.23 1012.53 1012.75
993.00 993.78 994.51 995.58 996.56 997.32 998.02 998.78 999.64 1000.43 1001.40 1002.31 1003.11 1003.96 1004.66 1004.79 1005.55 1005.74 1005.75 1005.90 1006.06 1006.27 1006.35 1006.74 1007.11 1007.44 1007.77 1008.04 1008.29 1008.62 1008.96 1009.39 1009.70 1009.99 1010.21 1010.42 1010.72 1010.97 1011.30 1011.62 1011.93 1012.24 1012.52
993.48 994.26 994.99 995.97 996.61 997.36 998.25 999.04 999.81 1000.53 1001.41 1002.28 1003.04 1003.85 1004.32 1004.62 1005.29 1005.67 1005.85 1005.98 1006.09 1006.33 1006.56 1006.73 1007.17 1007.45 1007.75 1008.04 1008.37 1008.59 1008.85 1009.17 1009.51 1009.83 1010.09 1010.31 1010.54 1010.77 1010.97 1011.27 1011.56 1011.83 1012.09
993.89 994.66 995.35 996.01 996.93 997.91 998.75 999.37 1000.03 1000.67 1001.48 1002.36 1003.16 1003.92 1004.39 1004.82 1005.39 1005.80 1006.04 1006.07 1006.18 1006.46 1006.68 1007.03 1007.33 1007.54 1007.77 1007.95 1008.29 1008.59 1008.89 1009.18 1009.40 1009.65 1009.92 1010.16 1010.38 1010.56 1010.75 1011.03 1011.29 1011.49 1011.77
994.15 994.90 995.79 996.62 997.46 998.44 999.05 999.72 1000.24 1000.91 1001.73 1002.56 1003.36 1004.06 1004.64 1005.17 1005.71 1006.18 1006.62 1006.96 1007.14 1007.35 1007.48 1007.60 1007.87 1008.10 1008.15 1008.28 1008.40 1008.64 1008.83 1008.99 1009.13 1009.38 1009.65 1009.90 1010.06 1010.24 1010.43 1010.70 1010.98 1011.22 1011.49
994.48 995.25 995.95 996.85 997.68 998.40 999.23 999.94 1000.59 1001.27 1002.01 1002.92 1003.65 1004.38 1004.99 1005.65 1006.37 1007.04 1007.60 1007.99 1008.24 1008.44 1008.64 1008.85 1008.98 1009.14 1009.20 1009.17 1009.14 1009.15 1009.12 1009.12 1009.19 1009.21 1009.53 1009.71 1009.83 1010.05 1010.13 1010.35 1010.66 1010.97 1011.24
994.98 995.65 996.17 996.92 997.87 998.74 999.67 1000.40 1001.16 1001.93 1002.76 1003.51 1004.27 1005.11 1005.91 1006.61 1007.27 1007.96 1008.55 1009.04 1009.30 1009.61 1010.02 1010.18 1010.23 1010.29 1010.39 1010.25 1010.18 1010.05 1010.01 1009.77 1009.58 1009.50 1009.32 1009.59 1009.91 1010.25 1010.48 1010.75 1011.17 1011.57 1011.86
995.70 996.13 996.61 997.35 998.33 999.21 1000.11 1000.95 1001.73 1002.46 1003.42 1004.47 1005.35 1006.22 1007.01 1007.71 1008.37 1008.98 1009.47 1009.89 1010.27 1010.69 1011.01 1011.20 1011.42 1011.34 1011.21 1011.26 1011.35 1011.11 1010.73 1010.42 1010.19 1010.18 1010.28 1010.63 1010.99 1011.43 1011.72 1012.04 1012.26 1012.68 1012.87
Wind_Speed
14 14 13 11 10 9 9 8 8 8 10 11 11 11 10 9 8 8 7 8 9 7 6 7 6 5 4 4 3 3 3 3 3 2 1 0 2 4 4 3 3 4 4
12 11 12 9 10 10 10 10 10 11 11 12 11 11 11 10 10 10 9 8 9 8 7 7 7 4 5 5 4 5 4 4 3 4 2 1 1 5 4 4 4 4 4
9 10 9 10 10 10 9 9 11 11 12 12 12 13 12 10 10 9 10 10 8 8 8 7 7 7 6 4 5 5 4 4 3 3 3 1 1 3 3 4 4 4 3
9 9 12 13 13 12 11 12 12 12 12 13 13 13 12 11 10 10 10 8 7 6 7 6 7 8 7 7 5 6 5 5 3 4 4 2 1 3 3 4 4 3 3
9 7 10 11 11 11 11 10 11 12 11 12 12 11 11 10 8 10 9 8 8 7 6 6 5 6 7 7 4 6 6 5 5 6 5 2 2 5 5 2 3 2 4
9 5 4 8 11 11 11 12 13 13 11 12 13 12 11 7 13 13 10 8 7 7 7 5 5 7 7 7 6 8 9 8 6 5 4 6 4 3 4 5 5 3 3
12 4 8 9 12 13 12 12 13 12 13 12 12 11 10 9 14 13 12 7 7 7 7 6 5 4 7 6 3 6 8 6 8 6 8 6 6 6 7 8 5 3 2
9 5 8 11 11 13 12 12 12 11 12 11 10 10 10 5 10 12 10 7 6 6 6 7 7 7 6 7 6 6 6 4 5 3 7 7 5 9 9 6 7 6 4
8 5 6 9 13 12 12 12 11 11 11 8 9 9 9 6 8 12 10 7 7 6 5 6 6 6 7 9 7 6 6 3 4 4 7 11 11 11 10 9 7 8 3
9 6 5 8 11 13 12 12 11 11 11 9 8 7 9 8 8 9 9 6 7 5 5 4 3 5 9 9 7 7 7 5 6 5 5 6 8 10 12 7 10 9 5
8 8 8 7 10 13 12 12 13 12 11 10 10 8 8 8 7 9 10 7 7 5 4 3 2 4 7 8 6 7 5 7 6 6 6 5 6 6 4 4 5 9 9
10 7 9 9 9 10 14 11 11 12 12 11 11 8 5 6 6 6 9 8 11 7 6 3 3 6 7 8 6 11 14 10 6 5 5 4 4 4 4 4 4 3 4
7 6 9 11 11 11 14 12 10 11 10 10 8 7 5 3 3 6 7 9 8 4 4 5 9 8 10 7 12 13 11 7 6 6 5 3 3 4 4 4 4 5 4
0 6 7 9 11 10 9 9 10 9 10 9 8 7 5 4 4 4 4 4 8 7 8 5 5 6 6 8 7 6 6 6 6 6 5 5 5 4 5 3 4 4 3
5 3 6 8 11 10 8 5 8 6 9 10 8 8 9 5 4 5 7 5 5 6 8 5 5 5 5 6 4 5 5 6 6 5 5 4 4 4 3 2 3 3 3
3 10 9 9 9 9 9 9 18 12 12 12 11 9 4 8 12 10 10 11 12 13 3 5 5 6 6 6 6 5 5 6 5 5 5 5 4 4 4 2 2 3 4
9 11 9 11 10 10 9 9 9 9 17 13 9 12 10 12 12 11 10 10 12 7 3 5 5 6 6 5 5 5 3 4 5 4 5 5 6 4 5 3 2 3 2
11 15 11 9 10 9 8 8 8 9 7 5 11 6 10 14 12 12 12 10 3 2 4 6 5 5 6 6 5 5 5 5 4 4 4 5 5 5 5 4 4 3 3
11 9 10 9 8 10 8 8 8 8 7 6 4 8 8 12 10 10 4 4 4 4 4 5 5 5 5 5 5 5 6 6 5 5 5 5 5 5 5 4 5 5 5
9 14 11 10 9 10 9 8 7 6 7 6 6 6 5 5 4 3 2 3 3 3 3 5 4 4 5 5 6 6 5 5 4 4 4 4 5 5 4 5 5 4 5
9 8 11 9 8 9 9 7 7 7 7 6 6 5 6 7 7 4 3 3 4 4 4 4 4 4 4 4 5 4 4 4 4 4 3 4 4 4 4 3 4 4 3
9 9 8 9 9 9 9 8 8 8 8 9 7 4 8 7 6 5 3 3 3 3 3 4 3 4 4 4 4 4 4 4 3 3 4 3 3 3 4 4 4 4 4
9 10 9 8 9 11 10 9 8 9 9 9 8 7 6 6 6 5 6 6 6 5 5 5 5 4 4 4 3 2 4 4 3 3 3 3 4 4 4 5 5 4 3
10 10 11 10 10 10 10 10 8 9 10 9 8 7 7 7 7 9 7 6 7 7 8 7 7 8 5 5 4 3 2 1 1 1 1 1 2 3 3 3 3 5 4
9 9 10 11 10 10 10 9 9 9 9 8 8 8 9 8 9 8 8 7 8 9 11 9 7 11 12 12 10 9 5 4 2 2 1 3 5 8 6 6 7 7 8
8 8 9 10 10 10 11 10 9 10 10 9 9 9 9 9 9 9 8 9 9 10 12 9 13 17 16 14 15 12 11 11 10 10 8 8 8 8 8 10 12 7 9
Wind_Direction
241 228 215 201 186 167 168 171 172 149 163 170 172 164 170 160 164 166 160 150 149 148 150 164 177 163 166 163 159 164 166 157 170 143 87 178 147 131 97 88 98 93 93
237 213 208 192 171 168 179 173 159 174 171 165 160 163 162 167 167 162 155 154 157 163 162 166 175 159 171 165 171 186 185 181 149 156 127 162 162 121 116 95 76 76 95
240 200 181 172 170 177 181 168 168 171 169 156 160 163 166 168 164 166 152 156 164 166 168 171 168 170 176 170 182 189 193 175 173 147 133 169 133 124 92 71 61 69 72
261 203 182 176 176 178 176 172 169 168 161 160 165 162 162 167 163 152 148 152 160 167 170 168 170 183 178 186 188 194 189 176 158 137 140 134 123 125 119 123 83 39 71
263 198 198 174 158 154 157 160 162 161 166 154 154 153 156 162 159 146 148 163 162 162 163 174 177 182 172 179 171 182 174 168 157 154 147 137 152 160 149 111 97 89 55
281 206 155 148 144 151 154 164 165 168 150 151 153 151 155 156 151 148 154 158 157 162 170 171 166 165 174 159 186 184 175 162 158 161 159 165 171 122 135 133 135 142 110
313 175 154 165 157 162 161 162 166 157 148 154 147 148 151 147 153 154 145 150 158 168 162 157 161 168 164 163 144 175 176 188 170 154 162 176 164 161 143 143 133 101 90
306 236 156 162 162 159 158 160 157 152 146 146 143 143 138 125 159 156 148 142 143 152 156 164 167 174 180 170 172 166 167 173 179 164 169 169 160 159 158 144 126 106 88
267 305 166 164 163 162 156 148 144 138 130 129 131 134 131 131 133 146 143 136 132 142 150 164 173 175 178 174 165 152 143 138 59 147 141 139 144 138 140 130 139 146 132
269 271 219 175 159 152 145 145 140 136 123 125 112 113 118 127 139 161 129 125 132 141 137 143 174 179 172 178 164 156 160 172 153 127 102 82 135 150 157 162 153 157 132
272 238 178 171 148 140 141 137 128 117 115 112 108 102 117 141 132 159 132 140 154 148 149 156 160 156 178 172 158 170 160 135 125 121 119 119 129 149 147 136 169 159 156
323 188 153 142 146 140 120 115 118 119 118 117 121 111 105 107 112 147 146 146 164 161 163 148 147 147 149 150 136 132 128 127 133 125 121 119 128 145 152 151 137 123 104
315 130 144 150 132 136 128 123 118 120 122 131 130 125 121 116 108 136 153 144 142 116 131 123 116 128 133 114 132 135 132 138 134 132 131 122 130 120 106 90 93 103 67
16 104 119 132 120 126 117 124 125 129 132 139 139 132 127 129 134 144 128 120 103 92 106 107 132 127 107 117 129 139 136 140 137 130 123 111 118 136 138 134 138 146 132
103 59 140 146 117 98 70 95 133 120 146 150 147 148 151 152 165 144 144 146 142 124 112 117 129 119 127 139 135 128 126 136 131 130 134 126 128 126 111 127 130 153 177
89 156 172 135 124 125 117 87 45 64 86 94 121 140 113 138 141 141 122 125 129 145 113 139 132 135 146 148 144 133 139 142 139 136 132 138 136 139 133 134 130 170 186
190 151 141 134 139 141 135 130 113 56 69 61 99 120 130 145 138 135 127 135 151 142 127 138 141 148 148 142 139 134 120 137 135 141 144 151 151 135 139 148 142 155 162
152 144 136 137 138 131 135 133 134 136 126 96 42 76 116 124 129 129 129 117 123 116 137 142 142 146 145 141 143 140 137 144 148 145 150 157 157 154 156 161 167 167 171
130 127 126 122 120 126 123 123 131 128 121 115 115 67 73 91 105 126 126 127 137 131 135 133 140 145 147 150 150 148 155 165 160 161 168 168 163 163 171 174 177 186 172
112 115 112 120 122 120 119 122 119 117 125 134 126 126 144 115 115 127 91 117 121 127 125 131 134 134 140 151 156 156 149 156 156 162 167 166 168 170 175 183 191 185 199
117 109 112 116 118 119 124 119 120 124 132 121 115 124 135 121 129 132 125 133 154 157 138 134 139 142 145 152 153 148 147 155 155 157 162 173 177 190 193 177 204 190 174
118 124 122 121 118 114 117 121 120 120 115 115 115 105 117 112 126 132 127 93 93 103 110 134 132 137 152 157 153 146 152 155 159 164 169 177 181 189 193 203 201 198 203
122 115 114 115 111 121 120 130 125 121 121 121 117 115 108 118 117 93 75 57 48 50 41 57 71 65 51 60 60 127 167 183 189 183 182 194 201 208 201 215 211 205 205
125 131 128 127 134 128 130 131 114 106 115 118 114 114 104 91 87 80 69 62 59 55 55 54 53 54 47 46 37 30 37 58 46 153 143 219 240 207 222 205 207 222 230
127 131 132 134 131 125 123 114 120 118 115 116 100 90 90 86 84 79 74 69 67 66 59 52 52 54 48 48 44 38 27 49 18 59 90 148 97 82 74 77 75 68 67
114 127 125 127 124 126 127 125 123 121 109 98 94 90 90 87 84 81 81 81 79 73 74 63 62 62 60 52 45 38 34 43 62 57 68 70 74 71 71 71 74 71 68